Location: Northam
(31.6525°S, 116.6655°E)
Time: 18:35:05
(UTC+08:00)

Vanguard 2 - All Passes

Search period start: 15 June 2021 00:00
Search period end: 25 June 2021 00:00
Orbit: 552 x 2937 km, 32.9° (Epoch: 14 June)

Date Brightness Start Highest point End Pass type
(mag) Time Alt. Az. Time Alt. Az. Time Alt. Az.
15 Jun - 05:07:04 10° NNW 05:13:08 30° NE 05:22:15 10° E visible
15 Jun - 07:13:08 10° WNW 07:21:58 77° NNE 07:36:51 10° ESE daylight
15 Jun - 09:21:46 10° W 09:33:40 85° S 09:51:22 10° E daylight
15 Jun - 11:31:43 10° WSW 11:46:46 80° NNW 12:04:52 10° ENE daylight
15 Jun - 13:43:21 10° W 13:59:18 47° NW 14:14:49 10° NNE daylight
15 Jun - 16:00:45 10° W 16:09:55 16° NW 16:18:19 10° NNW daylight
16 Jun - 05:23:55 10° NNW 05:30:23 41° NE 05:40:47 10° E visible
16 Jun - 07:30:47 10° WNW 07:39:50 86° NNE 07:55:04 10° E daylight
16 Jun - 09:39:38 10° W 09:51:49 86° S 10:09:38 10° E daylight
16 Jun - 11:49:39 10° WSW 12:04:45 72° NNW 12:22:37 10° ENE daylight
16 Jun - 14:01:49 10° W 14:16:53 38° NW 14:31:32 10° NNE daylight
16 Jun - 16:26:36 10° NW 16:27:19 10° NW 16:28:01 10° NW daylight
17 Jun - 03:38:49 10° NE 03:40:32 11° NE 03:42:27 10° ENE visible
17 Jun - 05:41:05 10° NW 05:47:48 53° NNE 05:59:06 10° ESE visible
17 Jun - 07:48:32 10° W 07:57:48 88° S 08:13:19 10° E daylight
17 Jun - 09:57:30 10° W 10:09:56 90° N 10:27:51 10° ENE daylight
17 Jun - 12:07:38 10° WSW 12:22:39 62° NNW 12:40:08 10° NE daylight
17 Jun - 14:20:41 10° W 14:34:24 30° NW 14:47:46 10° NNE daylight
18 Jun - 03:53:39 10° N 03:57:37 18° NE 04:02:51 10° E visible
18 Jun - 05:58:28 10° WNW 06:05:23 67° NNE 06:17:18 10° ESE visible
18 Jun - 08:06:19 10° W 08:15:50 85° S 08:31:36 10° E daylight
18 Jun - 10:15:22 10° WSW 10:28:00 84° NNW 10:45:56 10° ENE daylight
18 Jun - 12:25:43 10° W 12:40:28 53° NNW 12:57:23 10° NE daylight
18 Jun - 14:40:14 10° W 14:51:55 22° NW 15:03:21 10° N daylight
19 Jun - 04:10:02 10° NNW 04:14:48 27° NE 04:21:45 10° E visible
19 Jun - 06:16:00 10° WNW 06:23:07 79° NNE 06:35:29 10° ESE visible
19 Jun - 08:24:08 10° W 08:33:53 85° S 08:49:54 10° E daylight
19 Jun - 10:33:13 10° WSW 10:46:00 76° NNW 11:03:52 10° ENE daylight
19 Jun - 12:43:57 10° W 12:58:14 43° NW 13:14:19 10° NNE daylight
19 Jun - 15:01:11 10° WNW 15:09:28 15° NW 15:17:37 10° NNW daylight
20 Jun - 04:26:56 10° NW 04:32:07 39° NE 04:40:12 10° E visible
20 Jun - 06:33:41 10° WNW 06:40:58 88° NNE 06:53:40 10° E visible
20 Jun - 08:41:57 10° W 08:51:56 87° S 09:08:10 10° E daylight
20 Jun - 10:51:06 10° WSW 11:03:57 67° NNW 11:21:34 10° NE daylight
20 Jun - 13:02:29 10° W 13:15:56 34° NW 13:30:52 10° NNE daylight
21 Jun - 04:44:09 10° NW 04:49:34 53° NNE 04:58:25 10° E visible
21 Jun - 06:51:24 10° W 06:58:53 86° S 07:11:53 10° E daylight
21 Jun - 08:59:45 10° W 09:09:57 87° NNW 09:26:22 10° ENE daylight
21 Jun - 11:09:03 10° W 11:21:51 57° NNW 11:39:01 10° NE daylight
21 Jun - 13:21:28 10° W 13:33:37 26° NW 13:46:52 10° N daylight
22 Jun - 02:56:40 10° N 02:59:38 16° NE 03:03:16 10° E visible
22 Jun - 05:01:35 10° WNW 05:07:10 68° NNE 05:16:33 10° ESE visible
22 Jun - 07:09:10 10° W 07:16:50 83° S 07:30:09 10° E daylight
22 Jun - 09:17:32 10° WSW 09:27:56 80° NNW 09:44:26 10° ENE daylight
22 Jun - 11:27:07 10° W 11:39:42 47° NNW 11:56:10 10° NE daylight
22 Jun - 13:41:20 10° WNW 13:51:20 19° NW 14:02:02 10° N daylight
23 Jun - 03:13:03 10° NNW 03:16:54 25° NE 03:22:06 10° E visible
23 Jun - 05:19:11 10° WNW 05:24:53 82° NNE 05:34:39 10° E visible
23 Jun - 07:26:57 10° W 07:34:49 85° S 07:48:25 10° E daylight
23 Jun - 09:35:21 10° WSW 09:45:52 71° NNW 10:02:19 10° ENE daylight
23 Jun - 11:45:25 10° W 11:57:32 38° NNW 12:12:57 10° NNE daylight
23 Jun - 14:03:15 10° WNW 14:09:07 13° NW 14:15:11 10° NNW daylight
24 Jun - 03:30:02 10° NW 03:34:17 37° NNE 03:40:27 10° E visible
24 Jun - 05:36:51 10° W 05:42:43 88° S 05:52:47 10° E visible
24 Jun - 07:44:42 10° W 07:52:46 89° S 08:06:39 10° ENE daylight
24 Jun - 09:53:12 10° W 10:03:47 60° NNW 10:19:57 10° NE daylight
24 Jun - 12:04:04 10° W 12:15:22 29° NW 12:29:15 10° NNE daylight
